sat.trackr.live / text

‹ back to catalog

STARLINK-30556

NORAD 58031 · 2023-156D

PAYLOAD ACTIVE UNKNOWN

§ Identity

Operator
Country
US
Launch date
2023-10-09
Launch site
AFWTR
Launch vehicle
Mass (kg)
RCS (m²)

Purposes: comms

External: N2YO · Heavens-Above · Gunter

§ Orbital elements

Epoch: 2026-09-20T08:37:28.000704Z

Period
93.85 min
Inclination
53.1595°
Eccentricity
0.0001341
Mean motion
15.34393947 rev/d
Perigee alt
461.8 km
Apogee alt
463.6 km
Semi-major
6,840.9 km
B*
4.0957e-5
RAAN
260.0469°
Arg perigee
77.5188°
Mean anomaly
282.5965°
Rev number
16,602

§ Raw data

STARLINK-305561 58031U 23156D   26263.35935186  .00001007  00000+0  40957-4 0  99992 58031  53.1595 260.0469 0001341  77.5188 282.5965 15.34393947166029

JSON: /api/v1/satellites/58031 · /tle

For live sub-satellite position, see the globe view (requires WebGL).

§ Visibility from observer

Set your observer location to see the next 7 days of passes ≥ 10°. The values pass through the URL so the page stays shareable.

No JS? Fill the form by hand. The geolocation button needs JavaScript.